#timestamp,LO_Frequency,Hit,StdDev 
1619265615.3,286047002.7,N
1619265635.1,286047002.1,N
1619265655.9,286046998.5,N
1619265675.7,286046998.4,N
1619265695.5,286047000.0,N
1619265715.4,286047002.8,N
1619265735.2,286047000.9,N
1619265755.1,286047000.6,N
1619265756.0,286047000.6,N
1619265775.8,286047000.0,N
1619265795.6,286047001.3,N
1619265815.5,286047003.5,N
1619265835.3,286047003.5,N
1619265855.1,286047003.7,N
1619265875.9,286047003.2,N
1619265895.7,286047005.8,N
1619265915.6,286047005.4,N
1619265935.4,286047002.2,N
1619265955.2,286047000.5,N
1619265975.1,286047000.3,N
1619265976.0,286047000.3,N
1619265995.8,286047002.6,N
1619266015.6,286047003.9,N
1619266035.5,286047003.9,N
1619266055.3,286047001.6,N
1619266075.2,286047001.9,N
1619266095.9,286047001.6,N
1619266115.7,286047000.1,N
1619266135.6,286047002.3,N
1619266155.4,286047001.8,N
1619266175.2,286047001.5,N
1619266195.1,286047000.7,N
1619266196.0,286047000.7,N
1619266215.8,286047002.7,N
1619266235.7,286046999.8,N
1619266255.5,286047000.1,N
1619266275.3,286047002.7,N
1619266295.2,286046998.8,N
1619266315.0,286046999.3,N
1619266315.9,286046999.3,N
1619266335.8,286046998.7,N
1619266355.6,286046997.1,N
1619266375.4,286046998.6,N
1619266395.3,286047000.4,N
1619266415.1,286047004.4,N
1619266435.8,286047003.2,N
1619266455.7,286047003.2,N
1619266475.5,286047002.6,N
1619266495.3,286046999.7,N
1619266515.2,286047001.2,N
1619266535.0,286046998.2,N
1619266535.9,286046998.2,N
1619266555.8,286046999.7,N
1619266575.6,286047000.6,N
1619266595.4,286047000.8,N
1619266615.3,286046999.7,N
1619266635.1,286047002.9,N
1619266655.9,286047000.4,N
1619266675.7,286046999.2,N
1619266695.5,286046996.5,N
1619266715.4,286046997.1,N
1619266735.2,286046999.3,N
1619266755.0,286047002.5,N
1619266755.9,286047002.5,N
1619266775.8,286047002.8,N
1619266795.6,286047002.5,N
1619266815.5,286047011.9,Y
1619266835.3,286047001.1,P
1619266855.1,286046998.6,P
1619266875.9,286046997.6,N
1619266895.7,286046997.0,N
1619266915.5,286047000.8,N
1619266935.4,286046999.9,N
1619266955.2,286047000.7,N
1619266975.1,286047000.6,N
1619266976.0,286047000.6,N
1619266995.8,286047000.1,N
1619267015.6,286046999.2,N
1619267035.5,286046993.3,Y
1619267055.3,286046996.1,P
1619267075.2,286046994.5,P
1619267095.9,286046994.0,N
1619267115.7,286046996.7,N
1619267135.6,286046998.5,N
1619267155.4,286046998.9,N
1619267175.2,286047000.5,N
1619267195.1,286047001.0,N
1619267196.0,286047001.0,N
1619267215.8,286047001.4,N
1619267235.7,286047001.7,N
1619267255.5,286047002.7,N
1619267275.3,286047000.7,N
1619267295.2,286046999.9,N
1619267315.9,286047001.1,N
1619267335.7,286047001.1,N
1619267355.6,286046998.9,N
1619267375.4,286046997.2,N
1619267395.3,286046996.6,N
1619267415.1,286046998.7,N
1619267416.0,286046998.7,N
1619267435.8,286046998.7,N
1619267455.7,286046996.8,N
1619267505.5,286047000.4,E
1619267515.5,286046999.7,N
1619267535.3,286047002.7,P
1619267555.1,286046999.7,N
1619267575.9,286047000.2,N
1619267595.7,286047002.4,N
1619267615.5,286046998.4,N
1619267635.4,286046995.3,Y
1619267655.2,286046993.7,P
1619267675.1,286046997.4,N
1619267676.0,286046997.4,N
1619267695.8,286046996.6,N
1619267715.6,286047001.1,N
1619267735.5,286047000.0,N
1619267755.3,286047002.4,N
1619267775.1,286047002.5,N
1619267795.9,286047001.9,N
1619267815.7,286047001.7,N
1619267835.6,286047002.7,N
1619267855.4,286047000.0,N
1619267875.2,286047002.2,N
1619267895.1,286047002.6,N
1619267896.0,286047002.6,N
1619267915.8,286046998.3,N
1619267935.6,286046997.8,N
1619267955.5,286046998.1,N
1619267975.3,286046998.4,N
1619267995.2,286046999.4,N
1619268015.9,286046999.1,N
1619268035.7,286046996.5,N
1619268055.6,286047000.8,N
1619268075.4,286046998.5,N
1619268095.2,286046999.4,N
1619268115.1,286047000.2,N
1619268116.0,286047000.2,N
1619268135.8,286047000.5,N
1619268155.7,286047002.6,N
1619268175.5,286047002.7,N
1619268195.3,286047001.0,N
1619268215.2,286046999.7,N
1619268235.0,286047002.7,N
1619268235.9,286047002.7,N
1619268255.7,286046999.7,N
1619268275.6,286047000.6,N
1619268295.4,286047001.1,N
1619268315.3,286046999.3,N
1619268335.1,286046994.9,N
1619268336.0,286046994.9,N
1619268355.8,286046995.3,N
1619268375.7,286046997.5,N
1619268395.5,286046995.1,N
1619268415.3,286046995.9,N
1619268435.2,286046994.1,N
1619268455.0,286046992.8,N
1619268455.9,286046992.8,N
1619268475.8,286046992.7,N
1619268495.6,286046992.0,N
1619268515.4,286046992.3,N
1619268535.3,286046992.6,N
1619268555.1,286046992.2,N
1619268575.9,286046991.8,N
1619268595.7,286046994.8,N
1619268615.5,286046992.4,N
1619268635.4,286046992.2,N
1619268655.2,286046991.9,N
1619268675.0,286046992.3,N
1619268675.9,286046992.3,N
1619268695.8,286046992.2,N
1619268715.6,286046990.1,N
1619268735.5,286046991.9,N
1619268755.3,286046994.6,N
1619268775.1,286046994.1,N
1619268795.9,286046992.5,N
1619268815.7,286046990.8,Y
1619268835.5,286046998.5,P
1619268855.4,286046998.1,N
1619268875.2,286046996.9,N
1619268895.1,286046997.5,N
1619268896.0,286046997.5,N
1619268915.8,286046998.0,N
1619268935.6,286046994.9,Y
1619268955.5,286047000.9,P
1619268975.3,286047002.4,N
1619268995.2,286047002.4,N
1619269015.9,286047000.4,N
1619269035.7,286047000.4,N
1619269055.6,286047001.2,N
1619269075.4,286047000.9,N
1619269095.2,286046998.3,N
1619269115.1,286046999.3,N
1619269116.0,286046999.3,N
1619269135.8,286046999.6,N
1619269155.7,286046998.9,N
1619269175.5,286046999.4,N
1619269195.3,286046997.2,N
